Zurück zum Katalog

METEOR 2-8 DEB

AktivPO
NORAD 36862·DEBRIS·🇷🇺 Russia

Gestartet Mar 25, 1982 von Plesetsk Cosmodrome

Loading…

Nächste Überflüge (nächste 24 Stunden)

TLE

VeraltetSource: Space-Track

Epoche: Aug 31, 2026, 13:37 UTC

1 36862U 82025AZ  26243.56739676  .00003308  00000-0  13768-2 0  9999
2 36862  82.5421 180.5166 0020098 337.3758  22.6537 14.26026236626574

Verfolge METEOR 2-8 DEB in Echtzeit mit AllMySat

Download on the App Store